{"data":{"norad_id":65983,"epoch":"2026-09-19T23:57:36.600192Z","epoch_age_seconds":183766,"freshness":"STALE","line1":"1 65983U 25230K   26262.99834028  .00000129  00000+0  10874-3 0  9998","line2":"2 65983  81.2997 124.1578 0001275  46.5734 313.5527 13.82268599 46910","mean_motion":13.82268599,"eccentricity":0.0001275,"inclination_deg":81.2997,"raan_deg":124.1578,"arg_perigee_deg":46.5734,"mean_anomaly_deg":313.5527,"bstar":0.00010874,"rev_number":4691,"period_min":104.17656894194,"perigee_km":954.91622252768,"apogee_km":956.78638954572,"semimajor_km":7333.9883060367,"source":"CELESTRAK","updated_at":"2026-09-21T09:00:15.688698Z"}}